User: anonymous   Login
Location: Unspecified
(0.0000°N, 0.0000°E)
Time: 22:57:36
(UTC+00:00)
Language:

Transit 2A Rocket - Orbit

View from above orbital plane
View from above orbital plane
View from above satellite
View from above satellite

Ground track
Ground track

The orbit data is extracted from the following two-line orbital elements,

1    47U 60007C   19322.61589080 -.00000036  00000-0  16873-4 0  9997
2    47  66.6669   1.4157 0220396  98.5792 264.0351 14.42058723104587
Epoch (UTC): 18 November 2019 14:46:52
Eccentricity: 0.0220396
inclination: 66.6669°
perigee height: 594 km
apogee height: 909 km
right ascension of ascending node: 1.4157°
argument of perigee: 98.5792°
revolutions per day: 14.42058723
mean anomaly at epoch: 264.0351°
orbit number at epoch: 10458

The dashed part of the orbit path shows where the satellite is in the earth's shadow,  

DLR